Location: Fouchy
(48.3272°N, 7.2704°E)
Time: 05:54:22
(UTC+00:00)

Daily predictions for brighter satellites

Satellite Brightness Start Highest point End
(mag) Time Altitude Azimuth Time Altitude Azimuth Time Altitude Azimuth
CZ-2D R/B 4.1 00:01:17 10° NE 00:04:27 20° ENE 00:04:27 20° ENE
Cosmos 2333 Rocket 3.1 00:02:26 10° NNW 00:07:03 45° NNE 00:07:03 45° NNE
Cosmos 2237 Rocket 4.2 00:09:12 10° N 00:13:47 24° NE 00:17:06 15° E
Cosmos 2082 Rocket 4.5 00:27:35 13° WNW 00:29:46 16° NW 00:33:12 10° N
SL-16 R/B 3.0 00:31:32 53° ENE 00:31:53 54° ENE 00:37:55 10° N
Cosmos 2297 Rocket 4.5 00:36:37 13° E 00:36:47 13° E 00:39:22 10° ENE
Cosmos 839 Rocket 4.3 00:37:10 61° NW 00:37:10 61° NW 00:43:57 10° NE
Meteor 1-11 Rocket 4.4 00:36:31 10° N 00:42:20 51° ENE 00:42:22 51° ENE
USA 234 4.3 00:44:36 10° ENE 00:50:41 43° N 00:56:47 10° WNW
Cosmos 2219 Rocket 3.0 00:45:11 10° NNW 00:49:01 45° NNW 00:49:01 45° NNW
Cosmos 2227 Rocket 4.1 01:02:32 19° ESE 01:03:05 19° E 01:06:58 10° NE
ADEOS II 3.7 01:03:15 10° NE 01:07:35 25° E 01:08:11 25° ESE
COSMOS 2428 3.5 01:06:21 10° NNW 01:10:03 41° NW 01:10:03 41° NW
SJ 16-02 2.7 01:14:58 37° NNE 01:14:58 37° NNE 01:17:40 10° NNE
Cosmos 1464 Rocket 4.0 01:07:32 10° N 01:13:08 72° NW 01:13:08 72° NW
Cosmos 1980 4.1 01:11:32 10° NNW 01:17:10 60° ENE 01:18:04 53° E
Resurs 1-4 Rocket 2.3 01:14:17 10° NNE 01:18:58 68° NE 01:18:58 68° NE
NOSS 0 Rocket 3.8 01:18:44 10° NNW 01:24:54 89° NW 01:24:54 89° NW
ARIANE 5 R/B 4.1 01:25:11 10° NE 01:29:36 27° E 01:31:01 24° ESE
SL-16 R/B 3.7 01:29:41 10° NNW 01:34:50 34° NE 01:39:58 10° ESE
H-2A R/B 3.7 01:34:44 26° E 01:35:48 30° ENE 01:39:26 10° N
Cosmos 1908 Rocket 4.3 01:35:36 10° N 01:39:31 50° ENE 01:39:31 50° ENE
Cosmos 1733 Rocket 4.4 01:35:35 10° NNW 01:38:03 32° NNW 01:38:03 32° NNW
Lacrosse 5 rocket 2.8 01:41:23 31° NNE 01:41:23 31° NNE 01:44:04 10° NE
Timation 2 Rocket 4.0 01:39:47 69° SW 01:40:44 87° WNW 01:47:42 10° NNE
NPP 3.6 01:38:44 10° NNE 01:44:03 77° WNW 01:44:03 77° WNW
CZ-2D R/B 2.2 01:40:22 10° N 01:45:47 68° WNW 01:45:47 68° WNW
Cosmos 1634 Rocket 4.3 01:41:22 10° N 01:47:31 64° ENE 01:50:17 33° SSE
Cosmos 858 Rocket 4.5 01:50:51 72° NW 01:50:51 72° NW 01:55:53 10° NNE
ERS-2 3.8 01:53:19 29° N 01:53:19 29° N 01:55:12 10° NNW
Cosmos 2333 Rocket 3.9 01:47:04 10° NW 01:49:02 20° WNW 01:49:02 20° WNW
STARLINK-1048 4.3 01:56:05 53° NE 01:56:05 53° NE 01:59:24 10° ENE
Cosmos 372 Rocket 4.3 01:54:53 54° SE 01:55:28 58° ESE 02:00:36 10° NNE
CZ-4B R/B 3.7 01:51:49 10° N 01:55:59 52° NW 01:55:59 52° NW
Cosmos 1937 Rocket 3.5 01:56:46 66° WNW 01:56:46 66° WNW 02:01:54 10° NNE
USA 267 4.1 01:51:11 10° ENE 01:57:10 37° SE 01:58:52 32° SSE
STARLINK-24 4.3 01:58:12 50° NE 01:58:12 50° NE 02:01:23 10° ENE
Cosmos 2237 Rocket 2.0 01:52:47 10° NNW 01:58:28 76° WSW 01:58:51 72° SSW
SL-08 R/B 3.5 01:58:00 62° SE 01:58:47 77° ENE 02:03:46 10° NNW
STARLINK-1049 4.1 02:00:53 58° NNE 02:00:53 58° NNE 02:04:24 10° ENE
Tsikada Rocket 3.9 02:00:24 58° SSW 02:01:44 81° W 02:08:12 10° N
ATLAS 5 CENTAUR R/B 3.8 01:57:27 10° NNW 02:02:24 34° NE 02:08:05 10° E
CBERS-1 3.8 01:57:16 10° NNE 02:02:26 84° WNW 02:02:45 78° SW
Cosmos 2034 Rocket 4.3 01:57:35 10° NNW 02:03:41 49° W 02:03:51 49° W
STARLINK-1051 4.0 02:05:41 61° NNE 02:05:41 61° NNE 02:09:24 10° ENE
Okean 1 4.0 02:06:03 48° E 02:06:03 48° E 02:09:54 10° NNE
STARLINK-1010 4.0 02:07:29 60° N 02:07:29 60° N 02:11:31 10° ENE
STARLINK-1059 4.5 02:08:19 43° ESE 02:08:19 43° ESE 02:11:35 10° ENE
Meteor 1-27 Rocket 3.9 02:07:19 53° W 02:07:42 54° WNW 02:13:25 10° N
Cosmos 1898 Rocket 4.2 02:11:46 38° WNW 02:11:59 38° WNW 02:16:52 10° N
STARLINK-1057 4.2 02:13:06 48° ESE 02:13:06 48° ESE 02:16:34 10° ENE
IRS-P3 4.0 02:07:50 10° NNE 02:13:14 88° ESE 02:14:21 58° SSW
STARLINK-1028 3.9 02:15:14 61° NNW 02:15:14 61° NNW 02:19:20 10° ENE
SL-16 R/B 3.5 02:16:38 30° W 02:16:38 30° W 02:21:12 10° NNW
STARLINK-61 4.3 02:15:54 44° NNW 02:16:06 44° N 02:19:53 10° ENE
Landsat 5 4.1 02:15:52 33° ESE 02:17:11 48° ENE 02:20:56 10° N
STARLINK-1034 4.0 02:17:53 54° ESE 02:17:53 54° ESE 02:21:34 10° ENE
Sich 1 Rocket 4.3 02:13:40 10° N 02:17:58 50° ENE 02:20:31 22° SE
Cosmos 1743 3.1 02:15:00 10° N 02:18:11 58° NNW 02:18:11 58° NNW
Cosmos 1975 3.4 02:15:26 10° N 02:19:24 55° ENE 02:20:39 38° SE
Cosmos 2297 Rocket 2.2 02:18:26 51° SSW 02:19:53 80° ESE 02:25:35 10° NNE
STARLINK-1021 3.9 02:20:02 58° NNW 02:20:14 59° NNW 02:24:20 10° ENE
USA 238 DEB 3.7 02:18:58 43° SSW 02:21:18 73° SE 02:28:12 10° NE
USA 238 3.7 02:19:03 43° SSW 02:21:24 72° SE 02:28:19 10° NE
STARLINK-1068 3.8 02:22:39 60° SE 02:22:39 60° SE 02:26:33 10° ENE
BREEZE-M DEB (TANK) 3.0 02:22:14 70° W 02:22:39 85° N 02:28:23 10° E
STARLINK-1029 4.4 02:24:13 34° NNE 02:24:13 34° NNE 02:26:45 10° ENE
STARLINK-1019 3.9 02:24:48 54° NW 02:25:12 57° NNW 02:29:18 10° ENE
STARLINK-34 4.4 02:25:26 34° N 02:25:26 34° N 02:28:14 10° ENE
STARLINK-62 4.4 02:26:21 34° N 02:26:21 34° N 02:29:11 10° ENE
STARLINK-81 3.9 02:26:09 53° NW 02:26:30 55° NNW 02:30:29 10° ENE
Cosmos 405 4.4 02:28:56 28° NNW 02:28:56 28° NNW 02:31:07 10° N
STARLINK-1023 4.1 02:27:18 49° NW 02:27:56 54° NNW 02:32:04 10° ENE
STARLINK-54 4.0 02:27:55 49° NW 02:28:23 52° NNW 02:32:20 10° ENE
Cosmos 1048 Rocket 3.9 02:23:11 10° NNW 02:28:34 83° WSW 02:32:52 16° SSE
STARLINK-22 4.4 02:28:26 33° N 02:28:34 34° N 02:31:34 10° ENE
Cosmos 2219 3.2 02:27:51 49° SW 02:29:21 71° WNW 02:35:08 10° NNE
STARLINK-77 4.0 02:29:19 49° NW 02:29:48 53° NNW 02:33:47 10° ENE
STARLINK-1012 4.0 02:29:35 49° NW 02:30:13 55° NNW 02:34:18 10° ENE
CZ-2C R/B 4.0 02:26:47 10° NNE 02:30:36 39° E 02:32:21 25° SSE
STARLINK-25 4.0 02:30:54 48° NW 02:31:28 53° NNW 02:35:26 10° ENE
STARLINK-1060 3.5 02:32:12 68° S 02:32:22 70° SSE 02:36:30 10° ENE
USA 234 3.6 02:26:43 10° ESE 02:33:11 67° NNE 02:39:40 10° NW
STARLINK-71 4.1 02:32:41 44° NW 02:33:22 50° NNW 02:37:19 10° ENE
COBE Rocket 4.4 02:29:35 10° SSE 02:34:15 57° ENE 02:38:50 10° N
STARLINK-79 4.1 02:34:05 45° NW 02:34:48 51° NNW 02:38:45 10° ENE
Cosmos 2279 Rocket 4.0 02:28:43 10° N 02:35:01 87° E 02:40:52 12° S
STARLINK-78 4.1 02:35:41 43° NW 02:36:28 51° NNW 02:40:25 10° ENE
Meteor 1-28 Rocket 3.0 02:36:21 81° SSW 02:36:29 83° WSW 02:40:16 10° NNW
STARLINK-1030 3.5 02:37:00 68° SSW 02:37:21 74° SSE 02:41:31 10° ENE
Meteor 1-18 Rocket 4.2 02:34:44 32° S 02:37:33 85° E 02:43:17 10° NNE
STARLINK-57 4.2 02:37:22 41° NW 02:38:15 49° NNW 02:42:12 10° ENE
STARLINK-49 4.2 02:38:52 40° NW 02:39:48 50° NNW 02:43:45 10° ENE
Cosmos 1125 Rocket 3.7 02:37:44 33° S 02:40:08 69° ESE 02:45:26 10° NNE
STARLINK-1026 4.2 02:39:08 40° WNW 02:40:11 51° NNW 02:44:15 10° ENE
GENESIS II 4.2 02:39:54 65° SSW 02:40:27 83° SE 02:44:34 10° NE
STARLINK-27 4.2 02:40:27 39° WNW 02:41:27 49° NNW 02:45:23 10° ENE
IRS-1D 4.0 02:37:37 10° N 02:42:20 41° WNW 02:43:17 37° W
STARLINK-1020 3.5 02:41:48 64° SW 02:42:22 79° SSE 02:46:31 10° ENE
STARLINK-74 4.2 02:42:03 38° WNW 02:43:07 49° NNW 02:47:04 10° ENE
STARLINK-39 4.2 02:43:37 36° WNW 02:44:46 48° NNW 02:48:42 10° ENE
STARLINK-1013 4.3 02:43:55 36° WNW 02:45:11 50° NNW 02:49:14 10° ENE
NOSS 3-2 (A) 3.3 02:42:50 38° SW 02:45:16 88° NW 02:51:57 10° NE
STARLINK-31 4.2 02:45:15 35° WNW 02:46:28 48° NNW 02:50:24 10° ENE
Cosmos 2227 Rocket 2.1 02:44:21 39° SW 02:46:30 75° WNW 02:52:12 10° NNE
STARLINK-1052 3.5 02:46:34 59° SW 02:47:18 84° SSE 02:51:29 10° ENE
ADEOS II 2.4 02:42:28 10° N 02:47:34 51° WNW 02:49:08 38° WSW
STARLINK-1007 4.3 02:46:17 33° WNW 02:47:45 49° NNW 02:51:51 10° ENE
STARLINK-69 4.3 02:46:59 33° WNW 02:48:20 46° N 02:52:14 10° ENE
STARLINK-41 4.4 02:48:31 27° NNW 02:49:31 35° N 02:52:28 10° ENE
CENTAUR R/B 2.9 02:46:11 27° SSW 02:49:32 59° ESE 02:56:24 10° NE
STARLINK-21 4.3 02:48:25 33° WNW 02:49:48 47° N 02:53:43 10° ENE
STARLINK-1009 4.3 02:48:43 32° WNW 02:50:12 48° N 02:54:15 10° ENE
CZ-2D R/B 3.3 02:46:03 10° NNE 02:50:19 87° W 02:51:41 42° SSW
STARLINK-45 4.4 02:50:10 30° WNW 02:51:41 45° N 02:55:35 10° ENE
Cosmos 1782 Rocket 3.6 02:47:32 10° NNW 02:51:46 51° W 02:52:27 46° SW
Cosmos 2150 Rocket 4.2 02:50:33 38° SW 02:52:34 62° WNW 02:58:01 10° NNE
SJ 16-02 3.5 02:51:57 13° WNW 02:52:34 13° NW 02:54:40 10° NNW
NOSS 3-3 (A) 4.5 02:45:17 10° NW 02:52:40 62° WSW 03:00:50 10° SSE
NOSS 3-3 (C) 4.5 02:45:23 10° NW 02:52:46 62° WSW 03:00:57 10° SSE
STARLINK-70 4.3 02:51:41 30° WNW 02:53:15 45° N 02:57:09 10° ENE
Cosmos 2298 Rocket 4.2 02:51:31 37° WSW 02:53:20 56° WNW 02:58:36 10° NNE
CZ-4C R/B 3.7 02:54:40 34° NW 02:54:40 34° NW 02:56:45 10° NNW
STARLINK-76 4.3 02:53:12 29° WNW 02:54:48 46° N 02:58:43 10° ENE
STARLINK-1015 4.3 02:53:27 29° WNW 02:55:10 47° N 02:59:12 10° ENE
STARLINK-42 4.3 02:54:29 25° NW 02:55:49 37° N 02:58:50 10° E
Okean 1-7 3.3 02:55:06 43° WSW 02:56:00 50° WNW 03:00:19 10° N
STARLINK-23 4.3 02:54:48 28° WNW 02:56:28 45° N 03:00:23 10° ENE
STARLINK-1027 3.6 02:55:30 46° WSW 02:56:45 86° NNW 03:01:01 10° ENE
STARLINK-80 4.1 02:54:28 21° NW 02:56:46 53° NNE 03:00:30 10° E
STARLINK-1033 3.5 02:56:08 47° WSW 02:57:16 87° NNW 03:01:27 10° ENE
STARLINK-32 4.4 02:56:22 27° WNW 02:58:06 45° N 03:02:01 10° ENE
Resurs 1-4 Rocket 3.7 02:55:13 10° NNW 02:58:49 19° WNW 03:00:03 17° WNW
SAR-Lupe-4 3.4 02:57:22 33° S 02:58:52 77° WSW 03:02:28 10° NNW
STARLINK-40 4.4 02:57:57 26° WNW 02:59:46 45° N 03:03:40 10° ENE
STARLINK-64 4.5 02:58:20 22° NW 03:00:08 37° N 03:03:29 10° ENE
STARLINK-1016 4.4 02:58:16 26° WNW 03:00:12 46° N 03:04:13 10° ENE
Cosmos 1703 Rocket 4.1 03:00:16 36° WSW 03:01:08 40° WNW 03:05:23 10° N
IDEFIX/ARIANE 42P 2.7 02:56:06 10° NNE 03:01:18 72° ESE 03:05:38 15° S
STARLINK-44 4.4 02:59:33 26° WNW 03:01:26 44° N 03:05:20 10° ENE
STARLINK-37 4.4 03:01:14 24° WNW 03:03:15 44° N 03:07:07 10° ENE
STARLINK-1031 3.7 03:02:55 38° WSW 03:04:28 77° NNW 03:08:45 10° ENE
STARLINK-36 4.4 03:02:44 24° WNW 03:04:46 44° N 03:08:39 10° ENE
STARLINK-1008 4.4 03:03:03 24° WNW 03:05:13 45° N 03:09:13 10° ENE
BREEZE-M DEB (TANK) 2.9 03:05:30 30° S 03:06:10 34° SSE 03:08:20 10° E
STARLINK-68 4.5 03:04:28 22° WNW 03:06:39 43° N 03:10:31 10° ENE
STARLINK-1024 3.6 03:05:41 37° WSW 03:07:14 79° NNW 03:11:24 10° ENE
Cosmos 2180 Rocket 4.4 03:01:41 10° NNW 03:07:51 69° W 03:14:05 10° S
STARLINK-63 4.5 03:05:59 22° WNW 03:08:12 43° N 03:12:04 10° ENE
ARIANE 5 R/B 2.9 03:03:54 10° N 03:08:55 48° WNW 03:11:22 28° SW
STARLINK-35 4.5 03:07:30 22° WNW 03:09:46 43° N 03:13:38 10° ENE
CZ-4B R/B 1.7 03:06:32 10° SSE 03:10:00 72° ENE 03:13:30 10° N
CZ-2C R/B 4.0 03:06:28 10° NNE 03:10:33 31° E 03:14:36 10° SSE
BREEZE-M DEB (TANK) 3.5 03:05:26 10° WNW 03:10:34 32° SW 03:14:05 10° SSE
Spot 4 Rocket 4.1 03:05:34 10° N 03:10:39 60° WNW 03:13:36 25° SW
STARLINK-51 4.5 03:09:05 21° WNW 03:11:25 43° N 03:15:17 10° ENE
H-2A R/B 2.8 03:11:49 29° W 03:11:49 29° W 03:15:25 10° NW
STARLINK-1035 3.6 03:10:27 33° WSW 03:12:12 75° NNW 03:16:22 10° ENE
STARLINK-30 4.5 03:10:40 20° WNW 03:13:04 43° N 03:16:57 10° ENE
STARLINK-1039 4.5 03:12:03 25° SSW 03:13:58 40° SE 03:17:51 10° ENE
STARLINK-72 4.5 03:12:17 19° WNW 03:14:46 43° N 03:18:38 10° ENE
Cosmos 967 Rocket 4.4 03:08:48 10° NW 03:15:14 67° WSW 03:21:33 10° SSE
STARLINK-43 3.2 03:13:52 23° WNW 03:16:01 70° SSW 03:19:42 10° SE
SAR-Lupe-1 4.1 03:14:18 23° S 03:16:16 53° W 03:19:49 10° NNW
STARLINK-50 4.5 03:13:50 19° WNW 03:16:24 42° N 03:20:16 10° ENE
NOSS 3-2 (C) 3.4 03:13:20 24° SW 03:17:02 85° NW 03:23:46 10° NE
STARLINK-1032 3.7 03:15:15 30° W 03:17:11 71° NNW 03:21:21 10° ENE
Meteor 1-4 Rocket 3.4 03:13:55 10° S 03:17:34 53° E 03:21:15 10° NNE
Cosmos 389 Rocket 2.4 03:17:04 31° SSW 03:18:36 66° WNW 03:22:08 10° N
STARLINK-1045 4.4 03:16:50 24° SSW 03:18:55 44° SE 03:22:53 10° ENE
SL-16 R/B 2.4 03:13:43 10° NW 03:19:08 48° WSW 03:24:33 10° S
Lacrosse 5 rocket 3.3 03:17:13 10° NW 03:20:21 23° N 03:23:38 10° NE
STARLINK-26 3.6 03:18:24 15° WNW 03:21:10 61° NNE 03:24:36 10° ESE
STARLINK 1040 3.8 03:20:14 18° NW 03:21:56 39° NNE 03:24:32 10° E
STARLINK-1011 3.8 03:20:02 27° W 03:22:12 68° NNW 03:26:20 10° ENE
STARLINK-55 3.8 03:20:31 15° NW 03:23:01 47° NNE 03:26:08 10° E
Meteor 1-13 Rocket 4.5 03:17:37 10° S 03:23:20 73° E 03:28:57 10° NNE
STARLINK-1050 4.2 03:21:38 23° SSW 03:23:53 47° SE 03:27:53 10° ENE
Cosmos 2082 3.8 03:20:11 22° SW 03:23:55 65° WNW 03:29:39 10° NNE
ADEOS 4.4 03:19:48 10° NNE 03:24:54 50° E 03:29:57 10° S
CZ-2D R/B 4.1 03:22:21 10° NNW 03:24:55 14° NW 03:27:06 11° WNW
deb Chang Zheng 4 3.5 03:20:52 10° NNE 03:25:12 81° WNW 03:28:51 14° SSW
Cosmos 1674 Rocket 4.2 03:21:26 10° S 03:25:44 57° E 03:30:03 10° NNE
STARLINK-28 3.7 03:24:21 14° WNW 03:27:00 51° NNE 03:30:08 10° E
STARLINK-1036 3.8 03:24:50 24° W 03:27:12 65° NNW 03:31:20 10° ENE
STARLINK-1055 4.1 03:26:25 22° SSW 03:28:51 51° SE 03:32:53 10° ENE
STARLINK-1044 3.9 03:29:37 22° W 03:32:11 62° NNW 03:36:19 10° ENE
STARLINK-33 3.7 03:30:17 12° WNW 03:33:12 51° NNE 03:36:21 10° E
Okean 3 3.6 03:30:21 19° SSW 03:33:12 53° WNW 03:37:18 10° N
STARLINK-1022 4.0 03:31:13 20° SW 03:33:49 55° SE 03:37:53 10° ENE
STARLINK-1047 3.9 03:34:23 19° W 03:37:10 60° NNW 03:41:17 10° ENE
Meteor 1-12 Rocket 4.4 03:31:27 10° NNW 03:37:20 61° W 03:43:05 10° S
STARLINK-1037 3.9 03:35:01 19° W 03:37:49 59° NNW 03:41:56 10° ENE
STARLINK-66 3.6 03:35:12 10° WNW 03:38:20 54° NNE 03:41:30 10° E
STARLINK-1042 3.9 03:35:59 19° SW 03:38:46 59° SSE 03:42:52 10° ENE
COSMOS 2441 4.3 03:34:47 10° NNE 03:39:36 86° WNW 03:44:25 10° SSW
Cosmos 1544 4.3 03:37:15 10° NW 03:40:09 22° W 03:41:05 20° WSW
STARLINK-58 4.2 03:37:10 10° WNW 03:40:11 38° N 03:43:13 10° E
USA 267 3.3 03:34:01 10° NE 03:40:34 81° NNW 03:46:14 15° WSW
Cosmos 2237 Rocket 4.0 03:39:17 10° WNW 03:40:36 12° W 03:40:36 12° W
Cosmos 1603 3.8 03:36:30 10° NNW 03:42:10 82° ENE 03:47:48 10° SSE
SeaSat 1 2.7 03:38:05 10° SE 03:43:01 75° ENE 03:47:57 10° NNW
STARLINK-1056 3.9 03:40:46 18° SW 03:43:45 63° SSE 03:47:51 10° ENE
Meteor 1-15 Rocket 4.4 03:38:19 10° N 03:43:55 78° ENE 03:49:34 10° SSE
Cosmos 1300 Rocket 3.9 03:40:30 10° NNW 03:44:35 42° W 03:48:39 10° SSW
STARLINK-1059 4.1 03:43:57 16° W 03:47:10 55° NNW 03:51:15 10° ENE
ATLAS 3B R/B 2.7 03:40:37 10° SSW 03:47:11 79° SE 03:53:52 10° NE
ATLAS 5 CENTAUR R/B 2.3 03:41:49 10° NW 03:47:31 70° SW 03:54:06 10° SSE
Cosmos 1818 3.9 03:43:08 10° NW 03:48:14 42° WSW 03:53:18 10° S
STARLINK-1054 3.8 03:45:32 16° SW 03:48:41 68° SSE 03:52:49 10° ENE
Cosmos 2221 Rocket 4.2 03:45:25 14° SW 03:48:47 38° WNW 03:52:57 10° N
STARLINK-75 3.5 03:45:41 10° WNW 03:48:52 57° NNE 03:52:03 10° E
STARLINK-1057 4.1 03:48:44 14° W 03:52:10 53° NNW 03:56:14 10° ENE
STARLINK-1062 3.7 03:50:19 15° SW 03:53:40 72° SSE 03:57:48 10° ENE
Okean 2 Rocket 4.0 03:50:37 10° NNW 03:54:32 29° W 03:58:25 10° SSW
Cosmos 2263 Rocket 2.8 03:49:43 10° S 03:55:16 58° ESE 04:00:51 10° NE
STARLINK-61 4.4 03:51:33 10° WNW 03:55:21 47° NNE 03:59:08 10° E
Cosmos 1689 Rocket 2.1 03:53:04 10° S 03:56:01 54° W 03:58:58 10° NNW
Cosmos 2151 Rocket 4.0 03:52:00 10° NNW 03:56:06 39° W 04:00:11 10° SSW
PSLV R/B 3.7 03:52:39 10° N 03:56:59 61° WNW 04:01:17 10° SSW
STARLINK-1034 4.2 03:53:31 13° W 03:57:09 52° NNW 04:01:14 10° ENE
Cosmos 1356 4.4 03:54:11 10° NW 03:57:10 27° W 04:00:06 10° SSW
BREEZE-M DEB (TANK) 2.0 03:54:44 10° WNW 03:58:26 76° SSW 04:00:41 10° ESE
STARLINK-1053 3.7 03:55:07 14° SW 03:58:39 77° SSE 04:02:48 10° ENE
Cosmos 1437 Rocket 4.0 03:55:48 10° S 03:59:44 47° E 04:03:40 10° NNE
STARLINK-1029 4.1 03:57:13 10° WNW 04:00:12 39° NNE 04:03:11 10° E
STARLINK-34 3.9 03:58:39 10° WNW 04:01:46 46° NNE 04:04:52 10° E
STARLINK-1068 4.2 03:58:17 11° W 04:02:09 50° NNW 04:06:12 10° ENE
STARLINK-62 3.9 03:59:37 10° WNW 04:02:43 46° NNE 04:05:49 10° E
STARLINK-1061 3.7 03:59:52 13° WSW 04:03:36 82° SSE 04:07:45 10° ENE
Cosmos 1867 3.8 03:58:11 10° SSW 04:03:37 73° SE 04:09:05 10° NE
Cosmos 1378 Rocket 3.5 03:59:56 10° SSW 04:04:17 77° W 04:08:41 10° N
Cosmos 2297 Rocket 3.6 04:00:14 10° W 04:04:37 23° NW 04:09:06 10° N
CZ-2C R/B 4.3 04:01:40 10° NNW 04:04:48 22° WNW 04:07:46 11° WSW
STARLINK-22 3.5 04:01:53 10° WNW 04:05:05 60° NNE 04:08:19 10° ESE
Cosmos 1092 Rocket 4.0 04:01:58 10° SSW 04:08:17 70° W 04:14:36 10° N
STARLINK-1067 3.6 04:04:40 11° WSW 04:08:36 86° SSE 04:12:46 10° ENE
Aureole 3 Rocket 3.5 04:05:24 10° N 04:10:05 61° ENE 04:13:35 10° SSE
STARLINK-1060 4.3 04:08:06 10° W 04:12:08 48° N 04:16:10 10° ENE
Meteor 1-31 Rocket 3.3 04:08:22 10° NNE 04:12:17 63° E 04:16:10 10° S
ATLAS CENTAUR R/B 1.5 04:11:35 12° W 04:13:17 37° NNW 04:16:03 10° NE
STARLINK-1058 3.6 04:09:26 10° WSW 04:13:34 89° N 04:17:43 10° ENE
USA 234 3.5 04:10:03 10° SSE 04:16:22 50° SW 04:22:42 10° WNW
Geosat 4.0 04:11:48 10° NNE 04:16:51 72° WNW 04:21:50 10° SW
STARLINK-1030 4.4 04:13:08 10° W 04:17:09 47° N 04:21:11 10° ENE
STARLINK-1043 3.6 04:14:25 10° WSW 04:18:34 85° NNW 04:22:44 10° ENE
STARLINK-48 3.5 04:14:41 10° WNW 04:18:37 89° SSW 04:22:31 10° ESE
STARLINK-1065 3.6 04:15:02 10° WSW 04:19:10 84° NNW 04:23:20 10° ENE
Cosmos 2026 Rocket 3.9 04:13:09 10° SSW 04:19:14 78° W 04:25:20 10° N
Cosmos 2251 Rocket 3.5 04:14:53 10° NNW 04:20:15 76° WSW 04:25:33 10° SSE
STARLINK-1020 4.4 04:18:10 10° W 04:22:11 46° N 04:26:11 10° ENE
Timation 1 Rocket 4.4 04:17:52 10° SSW 04:23:54 84° WNW 04:29:58 10° NNE
STARLINK-31 4.5 04:22:12 10° WNW 04:26:06 45° N 04:29:59 10° E
